CET,Max TemperatureF,Mean TemperatureF,Min TemperatureF,Max Dew PointF,MeanDew PointF,Min DewpointF,Max Humidity, Mean Humidity, Min Humidity, Max Sea Level PressureIn, Mean Sea Level PressureIn, Min Sea Level PressureIn, Max VisibilityMiles, Mean VisibilityMiles, Min VisibilityMiles, Max Wind SpeedMPH, Mean Wind SpeedMPH, Max Gust SpeedMPH,PrecipitationIn, CloudCover, Events, WindDirDegrees
2012-12-1,49,38,28,32,28,23,100,76,38,29.98,29.82,29.71,19,10,6,6,2,,0.00,1,,5
2012-12-2,54,40,26,34,29,25,100,75,36,30.12,30.05,29.98,19,7,6,7,2,,0.00,2,,12
2012-12-3,61,47,33,40,35,30,93,73,37,30.24,30.17,30.12,19,8,6,9,2,,0.00,2,,201
2012-12-4,60,48,35,45,39,36,100,83,46,30.09,29.96,29.92,16,7,6,8,2,,0.00,3,,155
2012-12-5,58,45,32,37,34,28,100,74,38,29.95,29.88,29.83,19,7,6,10,2,,0.00,1,,294
2012-12-6,55,44,33,39,35,32,100,79,38,30.09,30.03,29.95,12,6,6,9,2,,0.00,1,,162
2012-12-7,59,44,30,38,34,29,100,81,43,30.04,29.88,29.74,19,7,1,8,2,,0.00,2,,19
2012-12-8,56,43,30,39,34,30,100,78,32,30.18,29.99,29.86,19,7,6,9,2,,0.00,2,,179
2012-12-9,54,40,26,37,31,26,100,81,33,30.27,30.22,30.18,19,14,9,7,1,,0.00,,,179
2012-12-10,55,40,26,37,31,27,100,79,41,30.18,30.09,30.04,16,7,6,10,2,,0.00,1,,346
2012-12-11,49,40,30,36,30,27,100,75,40,30.15,30.11,30.09,19,7,6,14,4,,0.00,1,,27
2012-12-12,51,38,24,41,31,23,100,81,45,30.16,30.06,29.98,16,7,6,15,4,,0.00,2,,201
2012-12-13,58,50,41,46,43,39,100,77,47,29.98,29.87,29.80,16,7,6,16,7,,0.00,2,,212
2012-12-14,60,54,48,46,41,37,76,59,41,29.80,29.75,29.71,19,7,6,23,10,41,0.00,3,,240
2012-12-15,67,59,51,49,45,41,82,64,40,30.01,29.88,29.71,19,7,6,22,10,23,0.00,1,,235
2012-12-16,64,55,46,46,41,37,77,57,34,30.09,30.02,29.95,19,7,6,15,4,26,0.00,2,,238
2012-12-17,62,52,41,48,43,39,100,77,50,30.09,30.01,29.92,16,7,6,13,4,26,0.00,2,,227
2012-12-18,61,48,35,46,41,36,100,82,54,30.15,30.12,30.09,14,7,6,8,1,,0.00,2,,210
2012-12-19,56,48,39,48,43,38,100,90,65,30.18,30.13,30.06,12,6,3,2,0,,0.00,3,,187
2012-12-20,60,52,44,48,45,42,100,79,52,30.06,29.96,29.89,19,7,4,15,4,26,0.00,2,,226
2012-12-21,60,52,44,48,45,39,100,82,39,30.09,29.98,29.89,19,7,4,7,2,,0.00,2,,357
2012-12-22,57,49,41,48,44,41,100,90,63,30.24,30.18,30.09,16,6,3,7,1,,0.00,1,,246
2012-12-23,68,52,35,48,43,36,100,86,43,30.21,30.13,30.06,19,6,0,6,1,,0.00,4,Fog,207
2012-12-24,59,50,41,55,47,41,100,98,82,30.09,30.03,29.98,6,2,0,9,1,,0.00,4,Fog,175
2012-12-25,54,50,46,50,48,46,100,96,76,29.98,29.93,29.89,6,4,2,9,4,,0.00,5,,287
2012-12-26,61,52,42,50,46,43,100,87,53,30.30,30.14,29.95,9,6,2,8,2,,0.00,3,,243
2012-12-27,60,46,32,45,39,32,100,86,47,30.33,30.29,30.24,12,4,0,4,1,,0.00,1,Fog,203
2012-12-28,63,49,35,46,40,34,100,84,45,30.45,30.39,30.36,16,15,12,8,2,,0.00,,,203
2012-12-29,63,48,32,48,41,32,100,85,42,30.36,30.18,30.04,12,3,0,18,3,,0.00,,Fog,211
2012-12-30,59,47,35,43,39,34,100,84,44,30.39,30.33,30.18,14,7,6,6,2,,0.00,1,,280
2012-12-31,59,44,30,42,36,30,100,81,47,30.39,30.23,29.98,19,7,3,18,4,,0.00,1,Fog,204